Theta_e
312 311 311 310 310 309 309 311 313 314 315 314 314 314 314 312 313 312 312 311 310 311
313 311 310 310 309 308 309 311 313 314 315 315 314 314 313 313 313 312 312 312 311 310
310 311 311 309 308 308 309 310 310 311 312 314 315 314 314 313 313 311 311 311 310 310
308 307 306 307 307 308 309 310 310 312 312 313 314 314 313 313 313 312 312 312 312 314
307 305 305 305 307 308 308 310 310 311 312 313 313 313 313 313 314 313 312 313 315 314
304 304 304 305 306 307 308 309 311 312 312 312 313 314 314 315 314 313 312 313 313 313
301 303 306 307 306 306 308 308 311 313 311 312 314 315 315 314 314 312 312 312 313 313
302 303 304 304 305 306 307 308 312 313 313 311 311 313 314 314 314 312 311 313 314 314
302 302 302 303 304 305 305 307 308 311 311 313 312 309 310 313 312 311 311 311 313 314
301 301 302 303 303 303 303 306 306 308 310 311 312 307 306 309 313 310 312 313 314 312
301 301 302 302 301 300 302 303 304 307 310 310 312 306 304 305 312 311 310 313 313 312
301 300 301 300 299 299 301 305 306 310 311 311 312 306 303 305 310 309 310 311 313 311
301 300 298 298 298 299 301 305 309 308 310 310 310 305 301 306 311 308 308 309 311 308
301 299 298 298 298 299 301 305 307 307 309 310 311 311 301 302 309 308 307 307 310 311
Wind_Speed
6 4 5 5 4 4 3 6 8 8 6 6 5 5 9 5 5 5 6 7 6 4
5 5 6 7 4 5 6 5 8 8 8 7 7 9 10 7 5 4 5 6 5 5
6 6 5 5 7 8 8 6 8 10 9 9 10 10 7 5 4 4 5 4 6 6
6 7 6 5 6 7 7 8 9 9 10 10 8 6 6 5 4 6 5 6 7 7
6 6 6 6 6 7 9 9 9 10 11 9 7 5 6 5 5 6 6 7 6 6
6 7 7 6 7 8 9 9 10 9 10 8 7 7 6 5 4 3 6 5 4 4
7 8 8 8 6 8 8 9 9 8 6 7 6 7 7 4 4 2 5 5 4 4
7 8 8 8 8 7 8 8 8 7 5 5 5 4 5 3 2 5 5 6 2 4
7 8 9 8 8 8 9 9 7 7 6 6 5 7 9 6 4 7 5 4 3 1
8 9 9 9 8 8 9 8 8 8 7 7 5 8 9 8 5 4 4 4 4 2
8 9 8 8 9 8 6 8 7 7 7 6 5 8 8 8 5 4 4 4 2 4
7 8 8 8 10 9 7 8 6 6 7 6 6 6 7 8 5 4 5 2 3 4
7 7 8 8 9 5 7 9 5 7 4 6 6 4 7 8 5 5 3 2 3 6
8 6 6 7 4 6 7 7 6 6 5 6 4 3 5 7 5 5 4 2 2 2
Wind_Direction
259 256 265 267 275 277 269 280 285 283 260 259 236 253 259 242 227 192 215 215 218 240
283 280 288 305 287 273 277 274 283 276 264 247 234 216 227 228 224 203 219 228 229 236
297 292 288 281 282 293 285 282 288 286 279 256 232 220 223 220 203 215 227 227 238 243
309 305 297 277 287 289 291 294 288 284 284 269 251 224 211 221 215 218 241 232 233 248
298 289 291 293 296 301 301 300 288 287 286 267 245 234 218 217 224 218 236 248 240 256
328 326 305 295 305 308 304 303 301 293 287 267 249 226 213 196 223 238 243 239 248 245
326 318 309 299 301 302 303 296 297 296 281 278 255 224 209 197 213 278 252 245 239 237
308 310 309 311 308 306 305 297 290 296 285 265 262 247 212 190 245 243 250 242 283 227
316 315 312 310 312 308 304 305 297 295 289 276 238 225 209 211 216 235 213 226 231 17
314 313 316 313 314 312 305 304 302 290 288 290 274 219 201 196 216 208 222 209 203 78
320 318 311 319 314 305 303 313 302 288 279 284 279 214 203 202 212 177 204 242 73 92
314 310 315 315 311 310 304 311 296 299 296 275 297 238 202 174 178 171 195 183 219 179
303 303 308 306 306 295 302 300 297 311 312 302 306 266 199 172 153 155 187 168 208 204
307 301 295 303 290 305 313 311 326 323 337 332 306 271 200 176 160 161 173 192 195 191